Terminal Aerodrome Forecast
Issued by NWS Charleston, WV

Current Version | Previous Version | Graphics & Text | Print | Product List | Glossary On
Versions: 1 2 3 4 5 6 7 8 9 10 11 12 13 14 15 16 17 18 19 20 21 22 23 24 25 26 27
000
FTUS41 KRLX 182300
TAFBKW
TAF
KBKW 182322Z 1900/1924 VRB03KT P6SM BKN060
     FM190600 32005KT P6SM BKN020
     FM191500 30005KT P6SM BKN025
     FM191700 30005KT P6SM SCT035 SCT250=

USA.gov is the U.S. government's official web portal to all federal, state and local government web resources and services.